Location: *
(58.4167°N, 22.5000°E)
Time: 01:04:52
(UTC+00:00)

RESURS DK-1 - Pass Details

Date: 22 September 2019
Orbit: 557 x 561 km, 69.9° (Epoch: 15 October)

Event Time Altitude Azimuth Distance (km) Brightness Sun altitude
Rises 17:42:08 0° 319° (NW) 2,762 7.0 -10.1°
Reaches altitude 10° 17:44:22 10° 322° (NW) 1,862 5.9 -10.3°
Maximum altitude 17:48:31 68° 46° (NE) 609 2.4 -10.8°
Enters shadow 17:51:53 15° 129° (SE) 1,552 4.0 -11.3°
